Palestine, IL

12:45 PM CDT on August 28, 2016 (GMT -0500)
Robinson Municipal

Weather History for KRSV - December, 2013

Change the Weather History Date:

Wednesday, December 18, 2013

  Actual Average (KLWV) Record (KLWV)
Temperature  
Mean Temperature 30 °F 34 °F  
Max Temperature 39 °F 41 °F 59 °F (2006)
Min Temperature 20 °F 26 °F 1 °F (2000)
Degree Days  
Heating Degree Days 36 31  
Month to date heating degree days 515  
Since 1 July heating degree days 1373  
Cooling Degree Days 0 0  
Month to date cooling degree days 0  
Year to date cooling degree days 1387  
Moisture  
Dew Point 23 °F    
Average Humidity 69    
Maximum Humidity 87    
Minimum Humidity 57    
Precipitation  
Precipitation 0.00 in 0.09 in 1.23 in (1990)
Month to date precipitation 1.90  
Year to date precipitation 42.39  
Sea Level Pressure  
Sea Level Pressure 30.18 in    
Wind  
Wind Speed 8 mph (SSW)    
Max Wind Speed 14 mph    
Max Gust Speed 21 mph    
Visibility 10 miles    
Events      
T = Trace of Precipitation, MM = Missing Value Source: NWS Daily Summary

Daily Weather History Graph

Daily Weather History Graph

Search for Another Location

Airport or City:

Trip Planner

Search our weather history database for the weather conditions in past years. The results will help you decide how hot, cold, wet, or windy it might be!

Date:

Astronomy

Dec. 18, 2013 Rise Set
Actual Time 7:04 AM CST 4:30 PM CST
Civil Twilight 6:34 AM CST 5:00 PM CST
Nautical Twilight 6:00 AM CST 5:33 PM CST
Astronomical Twilight 5:28 AM CST 6:06 PM CST
Moon 6:01 PM CST (12/18) 7:44 AM CST (12/18)
Length of Visible Light 10h 26m
Length of Day
9h 25m
Full, 98% of the Moon is Illuminated
Dec 18
Full
Dec 25
Last Quarter
Jan 1
New
Jan 7
First Quarter
Jan 15
Full

Hourly Weather History & Observations

Time (CST) Temp. Windchill Dew Point Humidity Pressure Visibility Wind Dir Wind Speed Gust Speed Precip Events Conditions
12:15 AM 29.7 °F 20.1 °F 24.6 °F 81% 30.24 in 10.0 mi West 11.5 mph - N/A   Clear
12:35 AM 29.8 °F 20.9 °F 22.3 °F 73% 30.25 in 10.0 mi WNW 10.4 mph - N/A   Clear
12:55 AM 29.1 °F 20.6 °F 21.0 °F 72% 30.25 in 10.0 mi WNW 9.2 mph - N/A   Clear
1:15 AM 27.1 °F 18.9 °F 20.1 °F 75% 30.25 in 10.0 mi WNW 8.1 mph - N/A   Clear
1:35 AM 26.4 °F 19.8 °F 19.2 °F 74% 30.26 in 10.0 mi West 5.8 mph - N/A   Clear
1:55 AM 25.5 °F 19.9 °F 18.5 °F 75% 30.25 in 10.0 mi West 4.6 mph - N/A   Clear
2:15 AM 22.8 °F 15.5 °F 17.4 °F 80% 30.25 in 10.0 mi West 5.8 mph - N/A   Clear
2:35 AM 23.5 °F 14.5 °F 18.1 °F 80% 30.26 in 10.0 mi West 8.1 mph - N/A   Clear
2:55 AM 25.3 °F 15.3 °F 18.3 °F 75% 30.27 in 10.0 mi West 10.4 mph - N/A   Clear
3:15 AM 25.9 °F 17.4 °F 17.6 °F 71% 30.27 in 10.0 mi WNW 8.1 mph - N/A   Clear
3:35 AM 24.3 °F 16.3 °F 16.7 °F 73% 30.27 in 10.0 mi West 6.9 mph - N/A   Clear
3:55 AM 22.8 °F 16.7 °F 16.3 °F 76% 30.27 in 10.0 mi West 4.6 mph - N/A   Clear
4:15 AM 24.3 °F 18.4 °F 16.5 °F 72% 30.27 in 10.0 mi West 4.6 mph - N/A   Clear
4:35 AM 21.6 °F 14.0 °F 15.8 °F 78% 30.27 in 10.0 mi WSW 5.8 mph - N/A   Clear
4:55 AM 21.4 °F 13.8 °F 15.8 °F 79% 30.27 in 10.0 mi WSW 5.8 mph - N/A   Clear
5:15 AM 24.1 °F 14.4 °F 18.3 °F 79% 30.28 in 10.0 mi WSW 9.2 mph - N/A   Clear
5:35 AM 24.4 °F 18.6 °F 18.3 °F 78% 30.28 in 10.0 mi WSW 4.6 mph - N/A   Clear
5:55 AM 23.9 °F 18.0 °F 18.1 °F 79% 30.29 in 10.0 mi WSW 4.6 mph - N/A   Clear
6:15 AM 21.9 °F 14.5 °F 17.2 °F 82% 30.29 in 10.0 mi SW 5.8 mph - N/A   Clear
6:35 AM 21.6 °F 16.8 °F 17.4 °F 84% 30.29 in 10.0 mi WSW 3.5 mph - N/A   Clear
6:55 AM 21.2 °F - 17.2 °F 85% 30.29 in 10.0 mi Calm Calm - N/A   Clear
7:15 AM 20.5 °F 15.6 °F 16.5 °F 85% 30.28 in 10.0 mi South 3.5 mph - N/A   Clear
7:35 AM 20.1 °F 15.2 °F 16.9 °F 87% 30.28 in 10.0 mi South 3.5 mph - N/A   Clear
7:55 AM 22.1 °F 15.9 °F 18.3 °F 85% 30.28 in 10.0 mi South 4.6 mph - N/A   Clear
8:15 AM 25.2 °F 20.9 °F 19.4 °F 79% 30.28 in 10.0 mi SSE 3.5 mph - N/A   Clear
8:35 AM 27.5 °F 23.6 °F 20.3 °F 74% 30.29 in 10.0 mi South 3.5 mph - N/A   Clear
8:55 AM 28.9 °F 25.2 °F 20.8 °F 72% 30.29 in 10.0 mi South 3.5 mph - N/A   Clear
8:59 AM 28.4 °F 23.3 °F 21.2 °F 74% 30.29 in 10.0 mi South 4.6 mph - N/A   Clear
9:15 AM 29.3 °F 23.2 °F 21.4 °F 72% 30.29 in 10.0 mi South 5.8 mph - N/A   Clear
9:35 AM 30.7 °F 24.9 °F 21.7 °F 69% 30.29 in 10.0 mi SSE 5.8 mph - N/A   Clear
9:55 AM 32.0 °F 27.5 °F 21.0 °F 64% 30.31 in 10.0 mi South 4.6 mph - N/A   Clear
10:15 AM 32.2 °F 27.7 °F 22.3 °F 67% 30.31 in 10.0 mi South 4.6 mph - N/A   Clear
10:35 AM 33.4 °F 27.3 °F 22.1 °F 63% 30.30 in 10.0 mi South 6.9 mph - N/A   Clear
10:55 AM 34.5 °F 27.9 °F 22.3 °F 61% 30.28 in 10.0 mi SSE 8.1 mph - N/A   Clear
11:15 AM 35.1 °F 28.6 °F 22.1 °F 59% 30.28 in 10.0 mi South 8.1 mph - N/A   Clear
11:35 AM 36.1 °F 30.6 °F 23.0 °F 59% 30.27 in 10.0 mi SSE 6.9 mph - N/A   Clear
11:55 AM 36.5 °F 30.3 °F 23.0 °F 58% 30.26 in 10.0 mi SSE 8.1 mph - N/A   Clear
12:15 PM 36.3 °F 29.5 °F 23.5 °F 60% 30.24 in 10.0 mi SSE 9.2 mph - N/A   Clear
12:35 PM 37.4 °F 31.4 °F 23.4 °F 57% 30.23 in 10.0 mi South 8.1 mph - N/A   Clear
12:55 PM 37.6 °F 30.5 °F 24.4 °F 59% 30.21 in 10.0 mi South 10.4 mph - N/A   Clear
1:15 PM 38.3 °F 30.9 °F 24.4 °F 57% 30.19 in 10.0 mi South 11.5 mph - N/A   Clear
1:35 PM 38.5 °F 30.3 °F 24.6 °F 58% 30.18 in 10.0 mi South 13.8 mph - N/A   Clear
1:55 PM 38.8 °F 32.6 °F 26.2 °F 61% 30.17 in 10.0 mi SSE 9.2 mph - N/A   Clear
2:15 PM 39.2 °F 32.5 °F 25.7 °F 58% 30.16 in 10.0 mi South 10.4 mph - N/A   Clear
2:35 PM 39.2 °F 32.5 °F 27.5 °F 63% 30.14 in 10.0 mi SSE 10.4 mph - N/A   Clear
2:55 PM 39.4 °F 32.7 °F 27.5 °F 62% 30.13 in 10.0 mi SSE 10.4 mph - N/A   Clear
3:15 PM 39.6 °F 32.1 °F 27.3 °F 62% 30.12 in 10.0 mi SSE 12.7 mph 17.3 mph N/A   Clear
3:35 PM 39.7 °F 31.9 °F 26.8 °F 60% 30.11 in 10.0 mi South 13.8 mph 20.7 mph N/A   Clear
3:55 PM 39.6 °F 32.1 °F 27.0 °F 61% 30.11 in 10.0 mi South 12.7 mph - N/A   Clear
4:15 PM 39.4 °F 31.8 °F 27.1 °F 62% 30.10 in 10.0 mi South 12.7 mph 17.3 mph N/A   Clear
4:35 PM 39.0 °F 31.8 °F 27.3 °F 63% 30.09 in 10.0 mi South 11.5 mph - N/A   Clear
4:55 PM 38.7 °F 30.9 °F 27.5 °F 64% 30.08 in 10.0 mi South 12.7 mph - N/A   Clear
5:15 PM 38.8 °F 31.2 °F 27.5 °F 64% 30.07 in 10.0 mi South 12.7 mph 18.4 mph N/A   Clear
5:35 PM 38.7 °F 31.8 °F 28.2 °F 66% 30.07 in 10.0 mi South 10.4 mph - N/A   Clear
5:55 PM 39.2 °F 31.6 °F 28.2 °F 65% 30.07 in 10.0 mi South 12.7 mph 16.1 mph N/A   Clear
6:15 PM 38.5 °F 31.6 °F 28.2 °F 67% 30.07 in 10.0 mi South 10.4 mph - N/A   Clear
6:35 PM 38.5 °F 31.1 °F 27.9 °F 66% 30.06 in 10.0 mi South 11.5 mph - N/A   Clear
6:55 PM 38.3 °F 31.9 °F 27.7 °F 66% 30.06 in 10.0 mi South 9.2 mph - N/A   Clear
7:15 PM 39.2 °F 32.0 °F 27.5 °F 63% 30.06 in 10.0 mi South 11.5 mph - N/A   Clear
7:35 PM 39.2 °F 32.5 °F 27.5 °F 63% 30.05 in 10.0 mi South 10.4 mph - N/A   Clear
7:55 PM 39.2 °F 32.0 °F 27.3 °F 62% 30.05 in 10.0 mi South 11.5 mph 17.3 mph N/A   Clear
8:15 PM 38.7 °F 32.9 °F 27.5 °F 64% 30.05 in 10.0 mi South 8.1 mph - N/A   Clear
8:35 PM 38.8 °F 33.2 °F 27.3 °F 63% 30.04 in 10.0 mi South 8.1 mph - N/A   Clear
8:55 PM 38.8 °F 33.2 °F 27.1 °F 63% 30.04 in 10.0 mi South 8.1 mph - N/A   Clear
9:15 PM 39.6 °F 33.0 °F 27.3 °F 62% 30.03 in 10.0 mi South 10.4 mph - N/A   Clear
9:35 PM 39.7 °F 33.2 °F 27.5 °F 62% 30.03 in 10.0 mi SSW 10.4 mph - N/A   Clear
9:55 PM 39.9 °F 33.9 °F 27.7 °F 62% 30.03 in 10.0 mi SSW 9.2 mph - N/A   Clear
10:15 PM 39.7 °F 33.2 °F 28.0 °F 63% 30.03 in 10.0 mi SSW 10.4 mph - N/A   Clear
10:35 PM 39.7 °F 32.7 °F 28.0 °F 63% 30.03 in 10.0 mi SSW 11.5 mph - N/A   Clear
10:55 PM 39.4 °F 33.2 °F 28.4 °F 65% 30.03 in 10.0 mi SSW 9.2 mph - N/A   Clear
11:15 PM 39.4 °F 32.3 °F 28.4 °F 65% 30.03 in 10.0 mi South 11.5 mph - N/A   Clear
11:35 PM 39.4 °F 32.7 °F 28.9 °F 66% 30.02 in 10.0 mi South 10.4 mph - N/A   Clear
11:55 PM 39.2 °F 34.2 °F 29.1 °F 67% 30.02 in 10.0 mi South 6.9 mph - N/A   Clear